Date String (YYYY-MM-DD hh:mm:ss) UTC,Instrument flags,absolute air pressure of the measurement (hPa),sample flow rate (lpm),inlet stack bypass flow (lpm),air temperature of the measurement (°C),ambient temperature measured by the external sensor (°C),aerosol sample conditioner tube jacket temperature (°C),OPC LED temperature (°C),internal box temperature (°C),relative humidity of the measurement (%),span deviation,mass concentration of particles derived from Lorenz-Mie calculation of OPC scattering (μg/m³),mass concentration of particles derived from Lorenz-Mie calculation of OPC scattering (μg/m³),mass concentration of particles derived from Lorenz-Mie calculation of OPC scattering (μg/m³)
DateTimeUTC,F1_M11,P_M11,Q1_M11,Q2_M11,T1_M11,T2_M11,T3_M11,T4_M11,T5_M11,U1_M11,ZSPAN_M11,X2_M11,X0_M11,X1_M11
2024-02-11 20:00:00,SystemResetWarning,0828.4,5.00,000.00,019.2,018.8,000.0,027.6,020.9,13.1,0000.0,0005.40,0011.35,0005.13
2024-02-11 20:01:00,SystemResetWarning,0828.4,5.00,000.00,019.2,018.8,000.0,027.6,020.9,13.3,0000.0,0005.40,0011.43,0005.13
2024-02-11 20:02:00,SystemResetWarning,0828.4,5.00,000.00,019.2,018.8,000.0,027.6,020.9,13.2,0000.0,0005.43,0011.36,0005.15
2024-02-11 20:03:00,SystemResetWarning,0828.4,5.00,000.00,019.2,018.8,000.0,027.6,020.9,12.8,0000.0,0005.46,0010.74,0005.16
2024-02-11 20:04:00,SystemResetWarning,0828.4,5.00,000.00,019.2,018.8,000.0,027.6,020.9,13.5,0000.0,0005.49,0010.75,0005.20
2024-02-11 20:05:00,SystemResetWarning,0828.4,5.00,000.00,019.2,018.8,000.0,027.6,020.9,13.1,0000.0,0005.52,0010.28,0005.22
2024-02-11 20:06:00,SystemResetWarning,0828.3,5.01,000.00,019.2,018.7,000.0,027.6,020.9,13.2,0000.0,0005.54,0009.82,0005.25
2024-02-11 20:07:00,SystemResetWarning,0828.4,5.00,000.00,019.2,018.7,000.0,027.6,020.9,13.6,0000.0,0005.53,0009.32,0005.26
2024-02-11 20:08:00,SystemResetWarning,0828.4,5.00,000.00,019.2,018.7,000.0,027.6,020.9,12.9,0000.0,0005.51,0009.28,0005.25
2024-02-11 20:09:00,SystemResetWarning,0828.3,5.00,000.00,019.2,018.7,000.0,027.6,020.9,13.1,0000.0,0005.50,0009.41,0005.27
2024-02-11 20:10:00,SystemResetWarning,0828.4,5.00,000.00,019.2,018.7,000.0,027.6,020.9,13.4,0000.0,0005.51,0009.76,0005.28
2024-02-11 20:11:00,SystemResetWarning,0828.4,5.00,000.00,019.2,018.7,000.0,027.6,020.9,13.1,0000.0,0005.51,0009.23,0005.29
2024-02-11 20:12:00,SystemResetWarning,0828.3,5.00,000.00,019.2,018.7,000.0,027.6,020.9,12.8,0000.0,0005.52,0008.93,0005.30
2024-02-11 20:13:00,SystemResetWarning,0828.3,5.00,000.00,019.2,018.8,000.0,027.6,020.9,12.2,0000.0,0005.54,0008.98,0005.30
2024-02-11 20:14:00,SystemResetWarning,0828.3,5.00,000.00,019.2,018.8,000.0,027.6,020.9,12.4,0000.0,0005.55,0008.90,0005.30
2024-02-11 20:15:00,SystemResetWarning,0828.3,5.01,000.00,019.2,018.8,000.0,027.6,020.9,12.7,0000.0,0005.55,0008.79,0005.31
2024-02-11 20:16:00,SystemResetWarning,0828.4,5.00,000.00,019.2,018.8,000.0,027.6,020.9,13.4,0000.0,0005.52,0008.76,0005.30
2024-02-11 20:17:00,SystemResetWarning,0828.3,5.00,000.00,019.2,018.7,000.0,027.6,020.9,13.1,0000.0,0005.54,0008.77,0005.30
2024-02-11 20:18:00,SystemResetWarning,0828.4,5.00,000.00,019.2,018.7,000.0,027.6,020.9,12.9,0000.0,0005.53,0009.30,0005.27
2024-02-11 20:19:00,SystemResetWarning,0828.3,5.00,000.00,019.2,018.7,000.0,027.6,020.9,12.9,0000.0,0005.53,0009.47,0005.25
2024-02-11 20:20:00,SystemResetWarning,0828.3,5.00,000.00,019.2,018.7,000.0,027.6,020.9,12.9,0000.0,0005.53,0009.88,0005.22
2024-02-11 20:21:00,SystemResetWarning,0828.4,5.00,000.00,019.2,018.8,000.0,027.6,020.9,13.4,0000.0,0005.52,0009.60,0005.21
2024-02-11 20:22:00,SystemResetWarning,0828.3,5.01,000.00,019.2,018.8,000.0,027.6,020.9,13.2,0000.0,0005.50,0009.55,0005.20
2024-02-11 20:23:00,SystemResetWarning,0828.3,5.01,000.00,019.2,018.8,000.0,027.6,020.9,13.3,0000.0,0005.48,0009.55,0005.19
2024-02-11 20:24:00,SystemResetWarning,0828.3,5.00,000.00,019.2,018.8,000.0,027.6,020.9,13.3,0000.0,0005.47,0009.74,0005.19
2024-02-11 20:25:00,SystemResetWarning,0828.3,5.00,000.00,019.2,018.8,000.0,027.6,020.9,12.7,0000.0,0005.46,0010.20,0005.20
2024-02-11 20:26:00,SystemResetWarning,0828.4,4.99,000.00,019.2,018.8,000.0,027.6,020.9,12.7,0000.3,0005.47,0010.91,0005.20
2024-02-11 20:27:00,SystemResetWarning,0828.3,5.00,000.00,019.2,018.8,000.0,027.6,020.9,12.7,0001.6,0005.48,0011.26,0005.20
2024-02-11 20:28:00,SystemResetWarning,0828.3,4.99,000.00,019.2,018.8,000.0,027.6,020.9,12.7,0001.2,0005.47,0011.51,0005.19
2024-02-11 20:29:00,SystemResetWarning,0828.3,5.00,000.00,019.2,018.8,000.0,027.6,020.9,13.9,0000.8,0005.50,0011.06,0005.22
2024-02-11 20:30:00,SystemResetWarning,0828.3,5.01,000.00,019.2,018.8,000.0,027.6,020.9,13.2,0000.7,0005.51,0010.91,0005.25
2024-02-11 20:31:00,SystemResetWarning,0828.3,5.00,000.00,019.2,018.8,000.0,027.6,020.9,13.4,0000.2,0005.51,0010.33,0005.27
2024-02-11 20:32:00,SystemResetWarning,0828.2,5.00,000.00,019.2,018.8,000.0,027.6,020.9,13.4,-000.1,0005.51,0009.98,0005.28
2024-02-11 20:33:00,SystemResetWarning,0828.3,5.00,000.00,019.2,018.8,000.0,027.6,020.9,13.4,-000.2,0005.50,0010.01,0005.27
2024-02-11 20:34:00,SystemResetWarning,0828.2,4.99,000.00,019.2,018.8,000.0,027.6,021.0,12.9,0000.2,0005.51,0010.01,0005.28
2024-02-11 20:35:00,SystemResetWarning,0828.3,5.00,000.00,019.2,018.8,000.0,027.6,020.9,13.0,0000.8,0005.53,0009.93,0005.29
2024-02-11 20:36:00,SystemResetWarning,0828.2,5.01,000.00,019.2,018.8,000.0,027.6,020.9,13.2,0000.5,0005.57,0009.55,0005.31
2024-02-11 20:37:00,SystemResetWarning,0828.2,5.01,000.00,019.2,018.8,000.0,027.6,020.9,13.4,0001.3,0005.59,0009.15,0005.34
2024-02-11 20:38:00,SystemResetWarning,0828.1,5.01,000.00,019.2,018.8,000.0,027.6,020.9,13.4,0001.7,0005.62,0008.69,0005.36
2024-02-11 20:39:00,SystemResetWarning,0828.2,5.00,000.00,019.2,018.8,000.0,027.6,020.9,14.0,0002.4,0005.65,0008.37,0005.39
2024-02-11 20:40:00,SystemResetWarning,0828.2,4.98,000.00,019.2,018.8,000.0,027.6,020.9,13.3,0002.8,0005.67,0008.37,0005.43
2024-02-11 20:41:00,SystemResetWarning,0828.2,4.99,000.00,019.2,018.8,000.0,027.6,020.9,13.4,0002.5,0005.72,0009.05,0005.46
2024-02-11 20:42:00,SystemResetWarning,0828.2,5.00,000.00,019.2,018.8,000.0,027.6,020.9,12.9,0002.8,0005.76,0009.44,0005.48
2024-02-11 20:43:00,SystemResetWarning,0828.1,5.01,000.00,019.2,018.8,000.0,027.6,020.9,12.7,0002.8,0005.82,0009.52,0005.53
2024-02-11 20:44:00,SystemResetWarning,0828.1,5.01,000.00,019.2,018.7,000.0,027.6,020.9,13.1,0002.9,0005.87,0009.59,0005.58
2024-02-11 20:45:00,SystemResetWarning,0828.1,5.00,000.00,019.2,018.7,000.0,027.6,020.9,13.5,0002.4,0005.90,0009.65,0005.60
2024-02-11 20:46:00,SystemResetWarning,0828.1,4.99,000.00,019.2,018.7,000.0,027.6,020.9,13.2,0002.0,0005.93,0009.67,0005.63
2024-02-11 20:47:00,SystemResetWarning,0828.1,5.00,000.00,019.2,018.8,000.0,027.6,020.9,13.1,0002.7,0005.90,0009.32,0005.63
2024-02-11 20:48:00,SystemResetWarning,0828.1,5.00,000.00,019.2,018.8,000.0,027.6,020.9,12.8,0002.0,0005.87,0009.17,0005.62
2024-02-11 20:49:00,SystemResetWarning,0828.1,5.00,000.00,019.2,018.8,000.0,027.6,020.9,12.9,0002.0,0005.88,0009.29,0005.64
2024-02-11 20:50:00,SystemResetWarning,0828.1,5.00,000.00,019.2,018.8,000.0,027.6,020.9,13.6,0001.2,0005.89,0009.60,0005.65
2024-02-11 20:51:00,SystemResetWarning,0828.1,5.00,000.00,019.2,018.8,000.0,027.6,020.9,13.4,0000.6,0005.90,0009.63,0005.66
2024-02-11 20:52:00,SystemResetWarning,0828.1,5.00,000.00,019.2,018.7,000.0,027.6,020.9,12.9,0000.0,0005.91,0009.21,0005.66
2024-02-11 20:53:00,SystemResetWarning,0828.1,5.00,000.00,019.2,018.7,000.0,027.6,020.9,12.6,0000.0,0005.89,0008.59,0005.66
2024-02-11 20:54:00,SystemResetWarning,0828.0,5.00,000.00,019.2,018.7,000.0,027.6,020.9,12.7,0000.0,0005.86,0008.52,0005.65
2024-02-11 20:55:00,SystemResetWarning,0828.0,5.00,000.00,019.2,018.7,000.0,027.6,020.9,12.8,0000.0,0005.85,0008.47,0005.64
2024-02-11 20:56:00,SystemResetWarning,0828.1,4.99,000.00,019.2,018.7,000.0,027.6,020.9,13.0,0000.0,0005.86,0008.70,0005.66
2024-02-11 20:57:00,SystemResetWarning,0828.1,5.00,000.00,019.2,018.7,000.0,027.6,020.9,13.0,0000.0,0005.84,0008.63,0005.65
2024-02-11 20:58:00,SystemResetWarning,0828.0,5.00,000.00,019.2,018.7,000.0,027.6,020.8,13.4,0000.0,0005.82,0008.63,0005.62
2024-02-11 20:59:00,SystemResetWarning,0828.1,5.00,000.00,019.2,018.7,000.0,027.6,020.8,13.9,0000.0,0005.79,0008.60,0005.59
